Regional Weather Roundup
Issued by NWS

Home | Current Version | Previous Version | Text Only | Print | Product List | Glossary On
Versions: 1 2 3 4 5 6 7 8 9 10 11 12 13 14 15 16 17 18 19 20 21 22 23 24 25 26 27 28 29 30 31 32 33 34 35 36 37 38 39 40 41 42 43 44 45 46 47 48 49 50
000
ASUS42 KFFC 281003
RWRGA
WEATHER ROUNDUP FOR GEORGIA
NATIONAL WEATHER SERVICE PEACHTREE CITY GA
600 AM EDT TUE APR 28 2015

NOTE: "FAIR" INDICATES FEW OR NO CLOUDS BELOW 12,000 FEET WITH NO
SIGNIFICANT WEATHER AND/OR OBSTRUCTIONS TO VISIBILITY.

* = USE WITH CAUTION. THE STATIONS MARKED WITH AN ASTERISK MAY NOT
REPORT WEATHER SUCH AS PRECIPITATION, FOG, OR THUNDER AND ARE NOT
QUALITY CONTROLLED BY NWS.

THE REMARK "TC" DENOTES TEMPERATURE READING IN DEGREES CELSIUS.

GAZ001>058-281100-
NORTH GEORGIA

CITY           SKY/WX    TMP DP  RH WIND       PRES   REMARKS
ATLANTA        CLOUDY    53  42  66 E10       29.89R
ATHENS         CLOUDY    51  41  68 E7        29.92R
CHAMBLEE       CLOUDY    54  39  57 E8        29.90R
PEACHTREE CITY CLOUDY    48  47  96 CALM      29.89R
ROME           PTCLDY    46  40  79 N3        29.91R
WEST ATLANTA   CLOUDY    50  44  80 NE5       29.89R
GAINESVILLE    CLOUDY    52  38  58 E7        29.94R
CARTERSVILLE   MOCLDY    43  40  89 CALM      29.91S


CITY           SKY/WX    TMP DP  RH WIND       PRES   REMARKS
DALTON*        CLEAR     45  41  87 CALM      29.92S
MARIETTA       CLOUDY    53  41  63 E8        29.89S
BLAIRSVILLE*     N/A     38  31  76 CALM      29.94S
$$

GAZ059>098-102>109-281100-
CENTRAL GEORGIA

CITY           SKY/WX    TMP DP  RH WIND       PRES   REMARKS
AUGUSTA-BUSH   CLOUDY    54  41  61 CALM      29.92F
AUGUSTA-DANIEL CLOUDY    58  37  45 E7        29.93S
COLUMBUS       CLOUDY    57  45  64 CALM      29.85R
MACON          CLOUDY    55  50  83 CALM      29.86S
ROBINS AFB     CLOUDY    56  53  88 N2        29.86S


CITY           SKY/WX    TMP DP  RH WIND       PRES   REMARKS
LAGRANGE*      CLOUDY    56  47  72 CALM      29.87S
SYLVANIA*      CLOUDY    55  48  76 E6        29.91F
MILLEDGEVILLE* CLOUDY    59  48  67 E9        29.90R
$$

GAZ099>101-110>166-281100-
SOUTH GEORGIA

CITY           SKY/WX    TMP DP  RH WIND       PRES   REMARKS
SAVANNAH       CLOUDY    59  56  89 NE15G22   29.88R
VALDOSTA       CLOUDY    65  63  93 E5        29.84S
ALMA             N/A     63  60  90 SE5       29.85R
ST SIMONS      LGT RAIN  68  52  56 E10       29.85R
FT STEWART     CLOUDY    59  59 100 CALM      29.84S FOG
ALBANY         CLOUDY    63  57  81 NE3       29.86R
HUNTER AFB     CLOUDY    61  60  98 E1        29.84S
MOODY AFB      CLOUDY    64  61  92 E8        29.82F
BRUNSWICK      CLOUDY    64  59  82 CALM      29.86S


CITY           SKY/WX    TMP DP  RH WIND       PRES   REMARKS
BAINBRIDGE*    CLOUDY    68  63  83 N9        29.83R
MOULTRIE*      CLOUDY    64  61  88 E7        29.81F
VIDALIA*       CLOUDY    59  59 100 E3        29.85F
WAYCROSS*      CLOUDY    67  64  91 SE5       29.85S
DOUGLAS*       CLOUDY    64  63  94 E3        29.86S
$$


USA.gov is the U.S. government's official web portal to all federal, state and local government web resources and services.